Regional Weather Roundup
Issued by NWS

Home | Current Version | Previous Version | Text Only | Print | Product List | Glossary Off
Versions: 1 2 3 4 5 6 7 8 9 10 11 12 13 14 15 16 17 18 19 20 21 22 23 24 25 26 27 28 29 30 31 32 33 34 35 36 37 38 39 40 41 42 43 44 45 46 47 48 49 50

000
ASUS45 KPSR 030700
RWRAZ

ARIZONA REGIONAL HOURLY WEATHER ROUNDUP
NATIONAL WEATHER SERVICE PHOENIX AZ
1200 AM MST SUN MAY 03 2015

NOTE: FAIR INDICATES FEW OR NO CLOUDS BELOW 12,000 FEET WITH NO
SIGNIFICANT WEATHER AND/OR OBSTRUCTIONS TO VISIBILITY.

AZZ001>003-036-030800-
NORTHWEST ARIZONA

CITY           SKY/WX    TMP DP  RH WIND       PRES   REMARKS
KINGMAN        CLEAR     67  35  30 S5        29.89S
$$

AZZ004>008-015-016-018-030800-
NORTH CENTRAL ARIZONA

CITY           SKY/WX    TMP DP  RH WIND       PRES   REMARKS
GRAND CANYON   PTCLDY    36  28  73 CALM      30.10R
WILLIAMS       PTCLDY    50  32  50 S8        30.17S
PRESCOTT       PTCLDY    62  31  31 W6        30.01S
FLAGSTAFF      NOT AVBL
PAGE           PTCLDY    70  29  21 S7        29.93R
$$

AZZ009>014-017-030800-
NORTHEAST ARIZONA

CITY           SKY/WX    TMP DP  RH WIND       PRES   REMARKS
WINSLOW        NOT AVBL
SAINT JOHNS    MOCLDY    54  35  48 S7        30.05F
WINDOW ROCK    MOCLDY    46  41  82 CALM      30.13S
$$

AZZ023-030800-
GREATER PHOENIX AREA

CITY           SKY/WX    TMP DP  RH WIND       PRES   REMARKS
PHOENIX        MOCLDY    84  39  20 W6        29.79R
DEER VALLEY    CLEAR     79  38  22 W6        29.83R
SCOTTSDALE     PTCLDY    83  37  19 W6        29.83R
MESA-GATEWAY   PTCLDY    79  39  24 SW8       29.84R
$$

AZZ027-028-030800-
SOUTHWEST MARICOPA COUNTY AND PINAL COUNTY

CITY           SKY/WX    TMP DP  RH WIND       PRES   REMARKS
CASA GRANDE    CLEAR     75  39  27 SW8       29.84R
$$

AZZ503-504-507>509-030800-
SOUTHEAST ARIZONA

CITY           SKY/WX    TMP DP  RH WIND       PRES   REMARKS
TUCSON         PTCLDY    72  41  32 SE3       29.96R
NOGALES        CLEAR     61  38  42 E6        30.02R
SAFFORD        PTCLDY    74  36  25 S7        29.90R
$$

AZZ020-021-025-026-031-030800-
SOUTHWEST ARIZONA

CITY           SKY/WX    TMP DP  RH WIND       PRES   REMARKS
YUMA           CLEAR     79  53  40 SE17      29.73F
$$

CAZ031-033-041-043-047-048-061-030800-
SOUTHERN CALIFORNIA

CITY           SKY/WX    TMP DP  RH WIND       PRES   REMARKS
DOWNTOWN L.A.  CLEAR     60  52  74 CALM      29.90R
L.A. AIRPORT   PTCLDY    59  53  80 S8G17     29.90R
SAN DIEGO      MOCLDY    64  56  75 S6        29.92S
BURBANK        CLEAR     61  48  62 SE10      29.88R
ONTARIO        CLEAR     60  52  74 SW9       29.89R
RIVERSIDE      CLEAR     61  51  70 W5        29.89R
PALM SPRINGS   CLEAR     85  28  12 W6        29.74R
EL CENTRO NAS  CLEAR     77  45  32 W12       29.74R
IMPERIAL       CLEAR     76  46  34 SW5       29.72R
BLYTHE         CLEAR     77  43  29 S5        29.75R
$$

NVZ020-UTZ003-030800-
SOUTHERN NEVADA-UTAH

CITY           SKY/WX    TMP DP  RH WIND       PRES   REMARKS
LAS VEGAS      NOT AVBL
SALT LAKE CITY MOCLDY    62  40  44 S6        29.87F
$$

NMZ009-TXZ055-030800-
NEW MEXICO-WEST TEXAS

CITY           SKY/WX    TMP DP  RH WIND       PRES   REMARKS
ALBUQUERQUE    MOCLDY    61  35  37 S7        30.05S
EL PASO        CLOUDY    76  36  23 S23       30.01R
$$


........................KEY........................
SKY/WX - SKY CONDITION/WEATHER
TMP    - TEMPERATURE IN FAHRENHEIT
DP     - DEW POINT IN FAHRENHEIT
RH     - RELATIVE HUMIDITY IN PERCENT
WIND   - DIRECTION AND SPEED IN MILES PER HOUR (MPH)
VRB    - VARIABLE WIND DIRECTION
PRES   - MEAN SEA LEVEL PRESSURE IN INCHES OF MERCURY
         F - FALLING PRESSURE   R - RISING PRESSURE
         S - STEADY PRESSURE
VSB    - VISIBILITY IN MILES
HX     - HEAT INDEX IN FAHRENHEIT
WCI    - WIND CHILL INDEX IN FAHRENHEIT
TC     - TEMPERATURE IN CELSIUS WHICH IS ALSO KNOWN AS
         TEMPERATURE IN CENTIGRADE
AFB    - AIR FORCE BASE
         LUKE AFB IS LUKE AIR FORCE BASE
         DAVIS-MONTHAN IS DAVIS-MONTHAN AIR FORCE BASE
NAS    - NAVAL AIR STATION
         EL CENTRO NAS IS EL CENTRO NAVAL AIR STATION
N/A    - NOT AVAILABLE



USA.gov is the U.S. government's official web portal to all federal, state and local government web resources and services.